Presure
123 130 140 124 115 130 135 146 143 144 160 146 168 152 162 134 164 136 140 135 136 137 137 124 126 120 124 129 139 171 119 175 173 145 147 139 151 187 135 137 188 237 238 235 267 200 361
124 130 119 159 113 112 144 136 123 160 157 142 141 141 137 170 134 136 125 119 125 138 125 122 121 132 117 119 126 124 142 140 119 132 166 122 172 176 153 147 226 237 239 226 257 277 360
153 115 109 124 165 176 162 124 141 119 121 124 166 136 135 133 139 136 139 134 128 127 134 135 130 132 121 133 188 172 204 130 182 134 178 201 226 216 167 249 246 151 239 235 238 260 355
171 152 175 128 116 117 117 130 159 140 167 131 152 111 121 143 136 127 126 119 121 122 128 122 129 117 137 122 129 203 153 195 195 196 223 215 119 151 185 158 238 200 229 236 227 258 316
151 164 161 155 119 136 129 114 118 151 153 171 125 122 112 118 125 134 136 125 126 126 125 130 135 139 142 125 124 133 174 134 149 177 204 198 201 114 151 190 239 134 227 233 230 248 174
177 181 161 139 111 162 171 121 159 156 139 158 128 132 130 127 125 131 122 125 122 120 118 126 128 121 111 125 150 124 119 174 213 192 197 190 223 213 216 213 223 134 232 224 239 244 263
176 174 179 182 183 173 172 185 125 124 128 183 151 133 154 153 127 119 119 133 137 160 123 173 169 142 158 123 121 227 146 184 127 175 185 226 224 231 213 217 210 228 137 227 239 235 239
170 171 174 141 176 175 180 182 181 187 184 136 134 149 159 173 125 125 143 123 128 131 131 185 182 166 197 187 114 183 157 206 183 181 190 210 196 205 227 228 218 228 237 168 235 226 239
168 173 171 173 175 177 181 178 176 177 184 188 144 162 150 108 119 120 119 121 126 125 184 199 159 177 173 120 195 215 140 186 195 202 217 199 218 206 227 232 232 231 232 196 230 230 235
156 151 164 160 180 179 186 181 177 181 181 181 183 197 196 187 188 184 196 176 184 188 153 148 199 174 200 186 172 191 198 221 200 194 206 203 199 225 141 228 232 156 223 235 229 226 221
175 171 169 203 169 168 198 172 163 200 182 194 204 209 183 185 177 189 191 196 191 192 201 202 196 154 172 198 190 188 199 179 195 198 138 187 196 228 234 220 227 225 232 224 170 225 224
187 181 182 167 166 173 177 185 184 169 173 190 196 193 192 192 196 196 193 194 194 194 193 200 206 196 213 206 218 204 194 196 190 211 226 203 202 188 215 217 230 227 234 222 233 224 212
174 203 203 205 204 197 206 200 191 204 201 193 202 186 183 175 172 184 204 202 194 208 203 192 192 195 217 208 197 213 215 200 213 197 187 181 218 209 217 226 229 228 228 229 224 234 215
233 206 203 198 195 206 212 195 206 208 206 206 203 205 208 206 205 206 210 214 201 206 206 201 201 199 210 205 224 224 218 184 207 185 212 178 217 229 233 230 223 219 231 229 230 237 217
216 219 235 216 235 243 229 213 211 216 212 197 151 153 209 213 215 212 208 203 203 207 210 212 213 212 205 203 205 174 224 214 218 230 230 233 218 235 240 233 232 223 226 228 225 239 236
200 213 202 204 211 216 230 225 250 231 225 221 218 205 222 224 212 212 179 182 195 212 211 218 212 212 198 205 218 222 220 215 220 230 232 230 229 235 243 238 234 235 233 234 234 229 228
213 231 203 233 200 209 217 227 222 234 228 218 220 231 216 234 227 224 223 198 218 219 221 226 235 237 225 236 234 215 235 229 228 236 231 228 243 207 249 236 239 240 233 208 234 234 228
171 223 204 231 211 234 238 217 204 204 199 225 221 238 217 213 230 223 229 142 222 239 230 230 213 211 206 213 230 208 233 238 235 231 233 252 244 215 241 241 241 199 201 249 247 241 236
214 220 212 205 229 229 238 238 234 202 198 221 215 210 223 232 227 231 221 214 180 216 211 230 200 157 156 225 195 226 217 228 231 214 239 223 203 214 233 219 220 207 197 225 231 245 242
216 211 220 219 238 205 234 228 226 226 239 232 245 250 219 225 223 228 224 222 218 183 190 157 160 164 204 182 225 233 218 211 210 223 219 222 214 229 229 196 216 215 199 249 223 217 236
235 226 224 218 236 243 233 234 230 236 229 256 241 275 251 235 205 229 225 232 230 220 211 214 214 208 215 234 215 230 232 240 236 221 230 232 214 200 193 163 162 228 232 217 215 237 243
252 235 225 238 233 226 232 241 244 220 235 243 292 278 266 246 241 228 226 228 230 219 222 219 214 213 224 216 222 222 231 224 229 220 217 217 229 207 224 222 225 225 225 174 153 156 249
235 225 238 228 238 221 244 248 246 231 312 238 296 265 265 263 250 240 242 239 225 229 229 218 226 219 217 218 219 220 219 216 223 228 228 231 236 223 214 233 243 227 212 214 225 219 209
237 232 230 235 245 250 239 245 252 318 243 296 285 271 261 252 247 247 248 246 246 235 230 229 227 222 229 226 224 222 228 231 226 229 236 229 223 222 232 245 229 206 189 225 184 214 204
243 238 238 236 224 248 243 254 297 299 293 280 274 272 263 267 259 254 245 247 246 244 243 233 188 220 134 227 226 227 231 224 230 230 248 237 217 234 234 233 243 239 234 230 233 227 201
234 232 247 230 233 248 263 308 300 294 290 279 282 266 261 261 254 258 244 249 251 241 244 244 237 141 239 158 248 236 142 225 158 163 232 237 234 239 243 233 250 221 213 217 220 226 226
237 262 258 266 277 312 298 288 286 288 286 276 272 271 270 267 259 256 253 253 250 246 245 241 242 244 248 184 245 247 246 244 241 237 238 233 237 242 241 250 245 238 233 225 216 218 236
267 296 310 304 301 290 283 277 174 283 279 275 273 266 259 260 257 261 254 255 254 251 246 242 250 242 241 237 238 242 242 239 243 235 237 243 237 239 233 230 238 213 214 216 228 226 215
306 292 295 279 270 282 286 291 289 287 268 259 252 258 263 271 268 264 246 256 258 249 244 243 241 235 238 231 243 241 250 251 249 263 247 237 233 137 235 236 228 232 231 229 230 229 229
Wind_Speed
26 24 30 25 21 23 25 28 26 24 25 24 25 23 24 23 27 23 24 21 23 24 24 16 17 15 18 21 25 33 20 40 40 28 33 33 38 52 28 31 49 58 62 62 70 46 37
29 33 28 30 27 26 31 28 21 31 27 29 28 27 27 31 25 25 21 20 21 26 20 19 21 26 17 17 23 23 30 35 23 31 37 21 47 41 35 35 53 58 55 58 66 76 35
37 34 34 31 34 33 37 27 33 26 25 24 35 29 29 28 30 29 30 27 25 24 29 29 27 29 22 30 47 44 46 30 51 36 49 59 52 54 45 56 53 37 60 60 63 71 43
41 39 40 37 36 33 32 33 41 37 35 33 35 29 28 35 33 29 26 25 24 25 27 27 30 25 34 27 32 45 42 51 53 53 45 52 24 41 52 33 55 49 57 58 55 68 73
41 46 42 41 36 43 40 36 35 39 44 41 33 32 32 31 31 34 35 30 28 28 29 31 32 38 37 32 33 38 38 33 42 46 55 58 47 22 43 48 58 30 55 54 56 60 28
50 49 48 47 40 49 48 39 50 42 43 49 39 41 39 36 35 36 32 33 32 30 30 31 36 32 31 34 45 32 29 55 49 53 56 60 49 55 55 56 53 27 48 54 50 55 69
51 51 52 52 52 53 52 52 42 41 43 50 51 43 53 53 38 34 35 41 45 52 34 58 56 44 50 37 34 44 47 51 37 53 54 47 49 49 55 54 55 52 29 49 50 49 53
52 52 54 47 57 57 56 56 55 54 56 49 47 51 55 60 39 39 44 39 41 44 45 56 56 58 51 53 33 58 49 52 56 57 58 52 55 56 50 49 51 48 46 34 47 47 52
52 56 55 58 60 61 62 60 60 59 59 60 53 54 50 39 43 42 41 42 45 44 64 57 54 55 65 43 59 48 49 61 49 55 50 53 50 54 54 51 49 44 45 37 44 45 47
49 45 55 54 65 65 65 66 63 65 64 64 64 63 63 64 63 65 64 71 66 65 58 53 55 67 49 65 58 61 55 46 53 55 50 55 55 53 40 53 50 31 43 46 42 40 38
63 61 61 63 62 59 65 64 57 62 68 69 65 62 67 68 64 68 68 65 63 67 59 59 62 55 60 55 60 61 54 61 57 54 48 56 55 50 50 50 50 44 44 38 27 39 38
70 70 70 62 62 67 72 74 74 62 66 73 64 70 71 71 69 68 70 69 68 69 70 65 60 63 56 58 52 53 59 57 62 52 49 51 53 54 50 49 50 49 49 39 36 36 37
58 69 70 72 71 72 71 73 75 73 73 74 71 76 70 66 64 72 66 67 69 64 66 68 69 65 62 57 61 54 53 55 51 58 60 48 51 48 50 49 47 49 48 47 38 33 34
60 77 74 69 68 78 75 69 75 75 76 76 74 76 76 73 72 70 70 70 69 72 71 67 68 66 61 61 62 60 56 55 55 56 51 52 51 54 48 43 42 42 46 42 38 34 24
65 66 61 68 64 67 71 78 80 80 80 76 60 61 79 79 79 77 74 71 72 74 72 70 68 66 63 62 61 55 64 57 57 61 59 55 54 53 49 44 41 40 42 42 40 39 28
67 63 67 67 68 70 66 70 66 69 77 80 82 75 84 84 82 80 68 71 74 82 77 76 72 69 66 64 66 66 63 59 59 61 57 53 56 53 50 45 41 40 40 40 38 35 29
66 54 58 63 70 72 71 72 75 70 74 73 74 74 78 80 83 83 83 76 82 84 83 80 76 71 70 68 67 64 66 64 63 60 56 54 53 47 51 44 43 40 38 36 37 32 32
61 60 67 68 66 65 68 77 76 76 73 76 77 70 79 78 77 78 74 57 75 69 73 73 67 66 64 66 67 58 66 66 63 58 57 54 45 45 47 43 44 39 38 36 37 35 28
65 65 68 74 71 68 72 71 72 73 76 84 84 80 76 78 80 74 77 77 65 75 75 73 69 60 60 71 57 66 64 64 59 53 53 46 45 47 48 37 39 41 41 36 36 35 35
72 69 72 72 78 70 74 76 78 78 75 79 81 77 81 79 80 80 81 78 81 73 73 62 63 69 71 65 72 66 67 60 58 58 55 53 49 51 48 44 41 42 43 33 35 37 40
88 82 80 77 77 75 79 81 80 80 81 77 78 72 76 79 77 79 81 78 79 84 83 80 80 80 78 70 74 71 71 66 59 57 59 57 50 47 45 47 48 45 47 32 36 33 30
86 83 82 84 79 80 82 85 87 82 81 80 75 72 74 77 79 81 82 79 83 85 84 87 81 83 81 80 79 74 71 66 61 59 58 55 54 51 55 59 51 44 51 41 39 38 39
93 85 87 84 85 81 87 85 86 83 76 79 70 71 73 74 79 80 80 79 82 85 88 85 86 85 85 87 81 78 74 69 68 64 64 63 61 57 51 59 57 47 54 45 43 36 35
92 89 88 88 87 86 87 88 85 74 84 69 67 69 72 72 75 79 77 79 81 83 84 86 90 87 90 90 87 83 80 78 73 73 72 64 62 61 58 58 48 52 53 54 47 45 40
92 93 93 90 87 92 88 89 73 69 67 68 69 69 69 66 71 75 77 77 80 83 83 85 73 91 35 90 86 85 87 76 78 78 75 69 63 65 58 56 50 50 56 57 57 51 50
92 90 95 91 91 94 91 71 69 69 68 69 68 73 73 70 72 72 76 77 77 81 83 85 89 38 93 64 92 85 49 79 62 64 75 74 68 64 59 59 51 51 58 61 60 52 59
95 97 95 94 89 75 71 69 69 68 69 70 71 71 73 73 72 75 76 77 80 83 84 84 86 88 89 64 88 87 86 84 75 70 72 71 71 69 66 66 50 56 66 67 60 59 60
96 90 81 77 74 71 70 69 55 71 72 71 73 75 75 73 72 73 78 80 82 86 87 85 85 89 92 94 94 92 85 82 74 71 74 79 73 70 72 69 50 62 69 67 68 65 63
78 78 76 75 76 72 71 68 68 68 73 77 77 79 79 77 75 78 79 85 88 90 90 90 88 91 96 96 97 95 88 83 84 82 81 70 74 47 73 69 66 67 71 73 74 74 73
Wind_Direction
239 248 257 238 232 264 266 263 262 270 274 265 279 276 279 270 285 277 276 280 283 285 287 284 291 282 298 306 300 299 267 307 308 306 314 310 311 321 316 315 317 322 324 324 346 332 342
239 251 236 265 230 232 263 263 253 271 273 264 264 263 264 285 270 271 269 266 276 284 283 280 284 296 281 290 301 303 305 304 291 307 307 302 318 311 311 318 323 324 327 329 346 354 345
264 226 227 246 267 272 272 251 262 244 249 259 279 266 267 267 269 269 273 274 278 282 287 289 292 294 287 299 302 308 299 302 313 302 315 315 317 318 310 332 332 313 333 336 344 351 352
268 260 269 248 245 239 241 255 272 261 275 259 270 251 257 267 270 268 269 266 272 277 286 282 291 276 294 289 296 300 302 306 309 309 313 312 287 306 323 310 334 332 334 337 339 354 2
262 269 261 263 240 256 259 244 249 267 268 275 257 255 257 261 264 270 274 272 276 276 278 284 285 288 287 289 288 297 298 298 299 303 310 315 317 285 305 320 337 305 332 338 337 354 329
269 270 266 252 253 270 270 253 268 268 264 272 260 263 262 263 266 270 270 274 272 271 273 279 281 277 271 283 295 288 288 307 307 307 311 315 318 317 320 325 328 305 334 333 345 354 2
269 270 273 273 275 272 273 276 257 260 262 274 267 265 270 272 269 269 272 274 276 284 275 291 293 284 291 281 282 301 289 302 292 311 313 320 319 324 318 322 326 334 306 335 348 353 2
267 268 272 265 276 274 276 277 276 279 278 267 268 269 273 278 268 270 275 270 274 277 279 287 291 294 295 293 274 302 291 300 306 309 309 315 312 317 325 326 324 330 342 323 352 346 3
268 268 269 271 271 273 274 274 275 274 278 278 266 278 270 258 268 268 267 268 273 271 282 289 288 289 294 273 294 301 285 303 301 304 313 312 319 316 326 328 331 332 340 333 348 348 4
264 268 271 271 270 273 273 275 275 276 276 277 278 279 281 281 281 278 286 279 282 287 279 280 289 289 293 290 295 294 295 304 299 302 308 309 313 325 293 326 328 303 334 349 348 344 348
267 268 271 271 275 275 273 277 274 276 275 277 280 281 277 277 277 280 282 286 286 284 286 287 285 284 290 283 287 292 292 300 298 298 290 308 309 322 323 320 323 324 334 339 315 344 349
267 269 268 271 273 273 273 272 274 276 277 276 279 279 279 279 280 281 282 283 285 284 284 284 288 286 295 296 296 289 291 290 296 301 309 303 303 307 315 319 322 323 330 332 347 347 337
272 273 275 277 274 271 277 274 272 277 276 277 277 278 279 279 281 281 280 282 283 286 281 283 284 288 296 293 291 293 295 288 297 294 297 300 312 305 315 318 321 322 325 330 337 350 333
275 272 274 275 274 280 280 274 280 282 282 283 280 282 283 282 281 281 284 285 280 283 282 283 284 286 291 291 299 299 299 294 297 294 301 298 306 313 315 313 313 316 320 321 325 336 324
276 278 282 276 278 274 272 277 281 279 282 282 274 275 286 286 284 284 284 284 284 286 286 287 289 291 287 289 294 287 300 298 301 305 305 305 304 310 310 311 311 310 315 316 321 329 337
276 278 278 279 280 281 280 279 276 274 275 277 279 280 279 278 283 284 279 280 283 286 287 289 288 289 285 289 295 296 299 296 300 303 303 305 307 307 307 307 308 308 309 311 314 320 321
277 291 281 283 282 283 282 282 282 280 279 279 280 276 277 272 275 278 279 278 281 282 284 283 282 284 288 286 289 296 292 295 296 298 300 304 302 295 303 304 308 306 307 306 309 312 314
281 286 280 296 279 286 279 278 284 284 283 280 279 275 281 284 280 281 279 270 280 277 280 283 284 285 286 290 288 293 292 293 294 297 299 299 300 298 306 306 308 294 299 304 302 303 302
282 292 277 282 290 289 287 280 276 282 284 278 280 282 276 275 276 275 278 282 277 282 285 280 283 278 279 283 285 287 291 290 290 292 295 297 290 298 303 298 299 291 294 303 303 302 297
291 285 290 291 292 284 286 281 280 279 280 280 277 273 277 275 276 272 274 275 278 277 278 273 274 276 280 281 284 283 285 286 287 292 291 292 290 297 294 288 295 294 292 300 294 298 297
296 291 290 290 289 288 285 282 280 281 280 285 279 273 268 270 280 272 272 270 268 273 280 280 281 282 283 280 284 281 282 284 285 285 288 288 289 281 278 275 279 294 297 291 286 305 291
293 290 289 292 288 284 285 283 282 280 280 283 277 271 265 267 268 271 271 268 266 272 271 275 277 279 279 280 280 280 281 284 284 281 282 284 284 282 283 285 287 288 289 272 269 272 298
290 287 288 287 288 283 286 285 285 282 282 281 273 272 269 267 266 268 268 265 269 266 266 271 271 273 276 276 278 280 280 281 282 282 281 283 285 281 279 283 280 284 280 283 284 279 278
288 287 287 287 287 287 283 285 287 283 282 277 274 271 270 269 267 267 267 266 265 263 264 265 267 270 268 270 274 276 278 278 281 282 282 282 281 280 280 281 283 275 279 279 278 273 261
285 285 285 284 281 286 284 286 283 281 275 273 273 271 270 268 266 266 266 265 265 265 263 261 269 269 267 268 272 274 273 279 279 279 278 277 277 280 282 280 282 281 275 278 277 276 260
284 284 285 281 282 284 285 284 282 277 274 272 268 269 270 268 266 263 266 265 262 263 265 265 265 274 268 271 267 267 277 273 268 270 276 276 277 280 282 277 280 273 273 274 272 276 273
282 284 284 285 285 285 283 281 279 276 271 270 269 267 267 268 268 268 266 264 263 264 264 264 264 266 265 274 268 267 267 270 273 274 279 279 281 281 279 279 279 278 273 268 274 272 277
285 287 286 286 286 284 282 280 271 275 272 270 268 267 267 265 265 264 265 266 265 263 264 266 264 266 267 270 269 269 270 271 274 275 276 275 279 282 278 276 281 263 269 272 271 269 268
286 287 287 287 286 284 282 280 278 273 270 270 270 268 267 265 263 263 265 264 263 263 263 264 264 265 265 267 267 270 273 274 275 273 274 277 277 270 281 281 278 277 272 270 271 271 270